STARLINK-4544 (53394 NORAD) Tracking and Keplerian Element Data

This shows tracking and keplerian element data for the satellite.

Feedback or suggestion? Click here.




ElementValue
Catalog53394
NameSTARLINK-4544
Epoch Orbit1632
Epoch Day325.16058094
Epoch Year2022
RAAN121.2307
Inclination53.2168
Eccentricity0.0002098
Argument of Perigee50.8322
Mean Anonmoly309.2856
Mean Motion15.08876361
Decay Rate4.521E-05
L11 53394U 22097G 22325.16058094 .00004521 00000+0 30169-3 0 9994
L22 53394 53.2168 121.2307 0002098 50.8322 309.2856 15.08876361 16326



Live tracking and technical data element details for STARLINK-4544 (NORAD 53394). STARLINK-4544 can be tracked NOW for your location showing map with azimuth and elevation plus other details from your city location.







IsCatalogInMostPopularTable: catalog: 53394, numindb: 8
Update: records affected: 1



GetName: 53394 STARLINK-4544

Hit Count: updated at: Thu, 08 Dec 2022 20:47:46 GMT